Year,Month,Day,Hour,Minute,Value (Times are PST for temperature in C)
2015,06,16,12,06,18.30
2015,06,16,12,07,18.30
2015,06,16,12,08,18.20
2015,06,16,12,09,18.10
2015,06,16,12,10,18.10
2015,06,16,12,11,18.20
2015,06,16,12,12,18.20
2015,06,16,12,13,18.30
2015,06,16,12,14,18.40
2015,06,16,12,15,18.40
2015,06,16,12,16,18.40
2015,06,16,12,17,18.40
2015,06,16,12,18,18.40
2015,06,16,12,19,18.40
2015,06,16,12,20,18.30
2015,06,16,12,21,18.30
2015,06,16,12,22,18.30
2015,06,16,12,23,18.30
2015,06,16,12,24,18.30
2015,06,16,12,25,18.40
2015,06,16,12,26,18.40
2015,06,16,12,27,18.30
2015,06,16,12,28,18.10
2015,06,16,12,29,18.00
2015,06,16,12,30,17.90
2015,06,16,12,31,18.00
2015,06,16,12,32,18.10
2015,06,16,12,33,18.20
2015,06,16,12,34,18.30
2015,06,16,12,35,18.40
2015,06,16,12,36,18.50
2015,06,16,12,37,18.60
2015,06,16,12,38,18.70
2015,06,16,12,39,18.70
2015,06,16,12,40,18.80
2015,06,16,12,41,18.80
2015,06,16,12,42,18.80
2015,06,16,12,43,18.70
2015,06,16,12,44,18.80
2015,06,16,12,45,18.80
2015,06,16,12,46,18.70
2015,06,16,12,47,18.70
2015,06,16,12,48,18.70
2015,06,16,12,49,18.70
2015,06,16,12,50,18.70
2015,06,16,12,51,18.70
2015,06,16,12,52,18.70
2015,06,16,12,53,18.60
2015,06,16,12,54,18.60
2015,06,16,12,55,18.50
2015,06,16,12,56,18.50
2015,06,16,12,57,18.50
2015,06,16,12,58,18.40
2015,06,16,12,59,18.40
2015,06,16,13,00,18.40
2015,06,16,13,01,18.20
2015,06,16,13,02,18.20
2015,06,16,13,03,18.20
2015,06,16,13,04,18.30
2015,06,16,13,05,18.40
2015,06,16,13,06,18.50
2015,06,16,13,07,18.50
2015,06,16,13,08,18.50
2015,06,16,13,09,18.40
2015,06,16,13,10,18.30
2015,06,16,13,11,18.40
2015,06,16,13,12,18.50
2015,06,16,13,13,18.60
2015,06,16,13,14,18.70
2015,06,16,13,15,18.50
2015,06,16,13,16,18.30
2015,06,16,13,17,18.30
2015,06,16,13,18,18.30
2015,06,16,13,19,18.40
2015,06,16,13,20,18.40
2015,06,16,13,21,18.40
2015,06,16,13,22,18.40
2015,06,16,13,23,18.40
2015,06,16,13,24,18.30
2015,06,16,13,25,18.20
2015,06,16,13,26,18.20
2015,06,16,13,27,18.20
2015,06,16,13,28,18.10
2015,06,16,13,29,18.20
2015,06,16,13,30,18.20
2015,06,16,13,31,18.30
2015,06,16,13,32,18.40
2015,06,16,13,33,18.50
2015,06,16,13,34,18.60
2015,06,16,13,35,18.80
2015,06,16,13,36,18.80
2015,06,16,13,37,18.90
2015,06,16,13,38,18.80
2015,06,16,13,39,18.80
2015,06,16,13,40,18.80
2015,06,16,13,41,18.70
2015,06,16,13,42,18.70
2015,06,16,13,43,18.70
2015,06,16,13,44,18.60
2015,06,16,13,45,18.60
2015,06,16,13,46,18.70
2015,06,16,13,47,18.70
2015,06,16,13,48,18.80
2015,06,16,13,49,18.80
2015,06,16,13,50,18.90
2015,06,16,13,51,19.00
2015,06,16,13,52,19.10
2015,06,16,13,53,19.10
2015,06,16,13,54,19.20
2015,06,16,13,55,19.30
2015,06,16,13,56,19.40
2015,06,16,13,57,19.40
2015,06,16,13,58,19.50
2015,06,16,13,59,19.60
2015,06,16,14,00,19.60
2015,06,16,14,01,19.60
2015,06,16,14,02,19.60
2015,06,16,14,03,19.60
2015,06,16,14,04,19.60
2015,06,16,14,05,19.60
2015,06,16,14,06,19.70
2015,06,16,14,07,19.60
2015,06,16,14,08,19.60
2015,06,16,14,09,19.70
2015,06,16,14,10,19.80
2015,06,16,14,11,19.90
2015,06,16,14,12,20.00
2015,06,16,14,13,20.10
2015,06,16,14,14,20.20
2015,06,16,14,15,20.30
2015,06,16,14,16,20.40
2015,06,16,14,17,20.40
2015,06,16,14,18,20.40
2015,06,16,14,19,20.30
2015,06,16,14,20,20.30
2015,06,16,14,21,20.30
2015,06,16,14,22,20.30
2015,06,16,14,23,20.30
2015,06,16,14,24,20.30
2015,06,16,14,25,20.30
2015,06,16,14,26,20.20
2015,06,16,14,27,20.20
2015,06,16,14,28,20.20
2015,06,16,14,29,20.20
2015,06,16,14,30,20.20
2015,06,16,14,31,20.20
2015,06,16,14,32,20.20
2015,06,16,14,33,20.30
2015,06,16,14,34,20.30
2015,06,16,14,35,20.20
2015,06,16,14,36,20.10
2015,06,16,14,37,19.90
2015,06,16,14,38,19.80
2015,06,16,14,39,19.80
2015,06,16,14,40,19.80
2015,06,16,14,41,19.70
2015,06,16,14,42,19.70
2015,06,16,14,43,19.70
2015,06,16,14,44,19.70
2015,06,16,14,45,19.70
2015,06,16,14,46,19.70
2015,06,16,14,47,19.70
2015,06,16,14,48,19.70
2015,06,16,14,49,19.70
2015,06,16,14,50,19.80
2015,06,16,14,51,19.80
2015,06,16,14,52,19.80
2015,06,16,14,53,19.80
2015,06,16,14,54,19.80
2015,06,16,14,55,19.80
2015,06,16,14,56,19.80
2015,06,16,14,57,19.70
2015,06,16,14,58,19.70
2015,06,16,14,59,19.70
2015,06,16,15,00,19.80
2015,06,16,15,01,19.80
2015,06,16,15,02,19.80
2015,06,16,15,03,19.80
2015,06,16,15,04,19.80
2015,06,16,15,05,19.80
2015,06,16,15,06,19.80
2015,06,16,15,07,19.80
2015,06,16,15,08,19.80
2015,06,16,15,09,19.90
2015,06,16,15,10,19.90
2015,06,16,15,11,20.00
2015,06,16,15,12,20.00
2015,06,16,15,13,20.10
2015,06,16,15,14,20.00
2015,06,16,15,15,20.00
2015,06,16,15,16,19.90
2015,06,16,15,17,19.80
2015,06,16,15,18,19.70
2015,06,16,15,19,19.60
2015,06,16,15,20,19.50
2015,06,16,15,21,19.40
2015,06,16,15,22,19.40
2015,06,16,15,23,19.40
2015,06,16,15,24,19.40
2015,06,16,15,25,19.50
2015,06,16,15,26,19.40
2015,06,16,15,27,19.40
2015,06,16,15,28,19.40
2015,06,16,15,29,19.40
2015,06,16,15,30,19.50
2015,06,16,15,31,19.60
2015,06,16,15,32,19.60
2015,06,16,15,33,19.70
2015,06,16,15,34,19.80
2015,06,16,15,35,19.80
2015,06,16,15,36,19.70
2015,06,16,15,37,19.60
2015,06,16,15,38,19.50
2015,06,16,15,39,19.50
2015,06,16,15,40,19.50
2015,06,16,15,41,19.50
2015,06,16,15,42,19.50
2015,06,16,15,43,19.40
2015,06,16,15,44,19.30
2015,06,16,15,45,19.30
2015,06,16,15,46,19.30
2015,06,16,15,47,19.30
2015,06,16,15,48,19.30
2015,06,16,15,49,19.30
2015,06,16,15,50,19.30
2015,06,16,15,51,19.30
2015,06,16,15,52,19.40
2015,06,16,15,53,19.50
2015,06,16,15,54,19.50
2015,06,16,15,55,19.60
2015,06,16,15,56,19.60
2015,06,16,15,57,19.60
2015,06,16,15,58,19.60
2015,06,16,15,59,19.60
2015,06,16,16,00,19.60
2015,06,16,16,01,19.60
2015,06,16,16,02,19.60
2015,06,16,16,03,19.80
2015,06,16,16,04,19.80
2015,06,16,16,05,19.70
2015,06,16,16,06,19.60
2015,06,16,16,07,19.60
2015,06,16,16,08,19.50
2015,06,16,16,09,19.40
2015,06,16,16,10,19.40
2015,06,16,16,11,19.30
2015,06,16,16,12,19.30
2015,06,16,16,13,19.30
2015,06,16,16,14,19.30
2015,06,16,16,15,19.50
2015,06,16,16,16,19.50
2015,06,16,16,17,19.60
2015,06,16,16,18,19.70
2015,06,16,16,19,19.80
2015,06,16,16,20,19.80
2015,06,16,16,21,19.80
2015,06,16,16,22,19.70
2015,06,16,16,23,19.70
2015,06,16,16,24,19.60
2015,06,16,16,25,19.60
2015,06,16,16,26,19.50
2015,06,16,16,27,19.50
2015,06,16,16,28,19.50
2015,06,16,16,29,19.60
2015,06,16,16,30,19.60
2015,06,16,16,31,19.70
2015,06,16,16,32,19.70
2015,06,16,16,33,19.70
2015,06,16,16,34,19.70
2015,06,16,16,35,19.70
2015,06,16,16,36,19.60
2015,06,16,16,37,19.60
2015,06,16,16,38,19.60
2015,06,16,16,39,19.60
2015,06,16,16,40,19.60
2015,06,16,16,41,19.70
2015,06,16,16,42,19.80
2015,06,16,16,43,19.80
2015,06,16,16,44,19.80
2015,06,16,16,45,19.80
2015,06,16,16,46,19.80
2015,06,16,16,47,19.80
2015,06,16,16,48,19.80
2015,06,16,16,49,19.80
2015,06,16,16,50,19.80
2015,06,16,16,51,19.80
2015,06,16,16,52,19.80
2015,06,16,16,53,19.80
2015,06,16,16,54,19.70
2015,06,16,16,55,19.80
2015,06,16,16,56,19.80
2015,06,16,16,57,19.90
2015,06,16,16,58,20.00
2015,06,16,16,59,20.00
2015,06,16,17,00,20.00
2015,06,16,17,01,20.10
2015,06,16,17,02,20.20
2015,06,16,17,03,20.20
2015,06,16,17,04,20.30
2015,06,16,17,05,20.30
2015,06,16,17,06,20.40
2015,06,16,17,07,20.40
2015,06,16,17,08,20.50
2015,06,16,17,09,20.50
2015,06,16,17,10,20.60
2015,06,16,17,11,20.50
2015,06,16,17,12,20.50
2015,06,16,17,13,20.40
2015,06,16,17,14,20.40
2015,06,16,17,15,20.40
2015,06,16,17,16,20.40
2015,06,16,17,17,20.40
2015,06,16,17,18,20.40
2015,06,16,17,19,20.50
2015,06,16,17,20,20.60
2015,06,16,17,21,20.60
2015,06,16,17,22,20.70
2015,06,16,17,23,20.70
2015,06,16,17,24,20.70
2015,06,16,17,25,20.80
2015,06,16,17,26,20.80
2015,06,16,17,27,20.90
2015,06,16,17,28,20.90
2015,06,16,17,29,21.00
2015,06,16,17,30,21.00
2015,06,16,17,31,21.10
2015,06,16,17,32,21.10
2015,06,16,17,33,21.10
2015,06,16,17,34,21.20
2015,06,16,17,35,21.20
2015,06,16,17,36,21.20
2015,06,16,17,37,21.20
2015,06,16,17,38,21.10
2015,06,16,17,39,21.20
2015,06,16,17,40,21.20
2015,06,16,17,41,21.20
2015,06,16,17,42,21.30
2015,06,16,17,43,21.30
2015,06,16,17,44,21.30
2015,06,16,17,45,21.30
2015,06,16,17,46,21.30
2015,06,16,17,47,21.30
2015,06,16,17,48,21.40
2015,06,16,17,49,21.40
2015,06,16,17,50,21.40
2015,06,16,17,51,21.40
2015,06,16,17,52,21.40
2015,06,16,17,53,21.50
2015,06,16,17,54,21.40
2015,06,16,17,55,21.40
2015,06,16,17,56,21.40
2015,06,16,17,57,21.40
2015,06,16,17,58,21.40
2015,06,16,17,59,21.40
2015,06,16,18,00,21.40
2015,06,16,18,01,21.50
2015,06,16,18,02,21.50
2015,06,16,18,03,21.60
2015,06,16,18,04,21.60
2015,06,16,18,05,21.60
2015,06,16,18,06,21.50
2015,06,16,18,07,21.50
2015,06,16,18,08,21.50
2015,06,16,18,09,21.40
2015,06,16,18,10,21.40
2015,06,16,18,11,21.30
2015,06,16,18,12,21.30
2015,06,16,18,13,21.30
2015,06,16,18,14,21.30
2015,06,16,18,15,21.30
2015,06,16,18,16,21.30
2015,06,16,18,17,21.40
2015,06,16,18,18,21.40
2015,06,16,18,19,21.50
2015,06,16,18,20,21.50
2015,06,16,18,21,21.50
2015,06,16,18,22,21.50
2015,06,16,18,23,21.50
2015,06,16,18,24,21.50
2015,06,16,18,25,21.60
2015,06,16,18,26,21.60
2015,06,16,18,27,21.60
2015,06,16,18,28,21.70
2015,06,16,18,29,21.60
2015,06,16,18,30,21.60
2015,06,16,18,31,21.50
2015,06,16,18,32,21.40
2015,06,16,18,33,21.20
2015,06,16,18,34,21.10
2015,06,16,18,35,21.00
2015,06,16,18,36,20.80
2015,06,16,18,37,20.80
2015,06,16,18,38,20.70
2015,06,16,18,39,20.60
2015,06,16,18,40,20.60
2015,06,16,18,41,20.50
2015,06,16,18,42,20.50
2015,06,16,18,43,20.40
2015,06,16,18,44,20.30
2015,06,16,18,45,20.30
2015,06,16,18,46,20.30
2015,06,16,18,47,20.30
2015,06,16,18,48,20.30
2015,06,16,18,49,20.30
2015,06,16,18,50,20.30
2015,06,16,18,51,20.30
2015,06,16,18,52,20.30
2015,06,16,18,53,20.30
2015,06,16,18,54,20.20
2015,06,16,18,55,20.20
2015,06,16,18,56,20.10
2015,06,16,18,57,20.10
2015,06,16,18,58,20.10
2015,06,16,18,59,20.00
2015,06,16,19,00,20.00
2015,06,16,19,01,19.90
2015,06,16,19,02,19.90
2015,06,16,19,03,19.90
2015,06,16,19,04,19.90
2015,06,16,19,05,19.90
2015,06,16,19,06,19.90
2015,06,16,19,07,19.90
2015,06,16,19,08,19.90
2015,06,16,19,09,19.90
2015,06,16,19,10,19.90
2015,06,16,19,11,19.90
2015,06,16,19,12,19.90
2015,06,16,19,13,20.00
2015,06,16,19,14,20.00
2015,06,16,19,15,20.00
2015,06,16,19,16,20.00
2015,06,16,19,17,20.00
2015,06,16,19,18,20.10
2015,06,16,19,19,20.10
2015,06,16,19,20,20.00
2015,06,16,19,21,20.00
2015,06,16,19,22,19.90
2015,06,16,19,23,19.80
2015,06,16,19,24,19.80
2015,06,16,19,25,19.80
2015,06,16,19,26,19.70
2015,06,16,19,27,19.60
2015,06,16,19,28,19.60
2015,06,16,19,29,19.50
2015,06,16,19,30,19.40
2015,06,16,19,31,19.40
2015,06,16,19,32,19.30
2015,06,16,19,33,19.20
2015,06,16,19,34,19.20
2015,06,16,19,35,19.10
2015,06,16,19,36,19.00
2015,06,16,19,37,18.90
2015,06,16,19,38,18.90
2015,06,16,19,39,18.80
2015,06,16,19,40,18.70
2015,06,16,19,41,18.60
2015,06,16,19,42,18.50
2015,06,16,19,43,18.40
2015,06,16,19,44,18.30
2015,06,16,19,45,18.30
2015,06,16,19,46,18.30
2015,06,16,19,47,18.20
2015,06,16,19,48,18.20
2015,06,16,19,49,18.20
2015,06,16,19,50,18.20
2015,06,16,19,51,18.20
2015,06,16,19,52,18.20
2015,06,16,19,53,18.20
2015,06,16,19,54,18.20
2015,06,16,19,55,18.20
2015,06,16,19,56,18.20
2015,06,16,19,57,18.20
2015,06,16,19,58,18.20
2015,06,16,19,59,18.10
2015,06,16,20,00,18.10
2015,06,16,20,01,18.10
2015,06,16,20,02,18.10
2015,06,16,20,03,18.10
2015,06,16,20,04,18.10
2015,06,16,20,05,18.10
2015,06,16,20,06,18.00
2015,06,16,20,07,18.00
2015,06,16,20,08,18.00
2015,06,16,20,09,18.00
2015,06,16,20,10,18.00
2015,06,16,20,11,18.00
2015,06,16,20,12,18.00
2015,06,16,20,13,18.00
2015,06,16,20,14,18.00
2015,06,16,20,15,18.00
2015,06,16,20,16,18.00
2015,06,16,20,17,18.00
2015,06,16,20,18,18.00
2015,06,16,20,19,18.00
2015,06,16,20,20,18.00
2015,06,16,20,21,18.00
2015,06,16,20,22,18.00
2015,06,16,20,23,18.00
2015,06,16,20,24,18.00
2015,06,16,20,25,18.00
2015,06,16,20,26,18.00
2015,06,16,20,27,18.00
2015,06,16,20,28,18.00
2015,06,16,20,29,18.00
2015,06,16,20,30,17.90
2015,06,16,20,31,17.90
2015,06,16,20,32,17.90
2015,06,16,20,33,17.80
2015,06,16,20,34,17.80
2015,06,16,20,35,17.80
2015,06,16,20,36,17.80
2015,06,16,20,37,17.70
2015,06,16,20,38,17.70
2015,06,16,20,39,17.70
2015,06,16,20,40,17.70
2015,06,16,20,41,17.70
2015,06,16,20,42,17.70
2015,06,16,20,43,17.70
2015,06,16,20,44,17.70
2015,06,16,20,45,17.60
2015,06,16,20,46,17.60
2015,06,16,20,47,17.50
2015,06,16,20,48,17.50
2015,06,16,20,49,17.40
2015,06,16,20,50,17.40
2015,06,16,20,51,17.40
2015,06,16,20,52,17.40
2015,06,16,20,53,17.40
2015,06,16,20,54,17.30
2015,06,16,20,55,17.30
2015,06,16,20,56,17.30
2015,06,16,20,57,17.20
2015,06,16,20,58,17.20
2015,06,16,20,59,17.20
2015,06,16,21,00,17.10
2015,06,16,21,01,17.10
2015,06,16,21,02,17.00
2015,06,16,21,03,17.00
2015,06,16,21,04,16.90
2015,06,16,21,05,16.90
2015,06,16,21,06,16.80
2015,06,16,21,07,16.70
2015,06,16,21,08,16.70
2015,06,16,21,09,16.60
2015,06,16,21,10,16.60
2015,06,16,21,11,16.60
2015,06,16,21,12,16.60
2015,06,16,21,13,16.60
2015,06,16,21,14,16.50
2015,06,16,21,15,16.50
2015,06,16,21,16,16.40
2015,06,16,21,17,16.40
2015,06,16,21,18,16.40
2015,06,16,21,19,16.40
2015,06,16,21,20,16.30
2015,06,16,21,21,16.30
2015,06,16,21,22,16.30
2015,06,16,21,23,16.20
2015,06,16,21,24,16.20
2015,06,16,21,25,16.20
2015,06,16,21,26,16.20
2015,06,16,21,27,16.20
2015,06,16,21,28,16.20
2015,06,16,21,29,16.10
2015,06,16,21,30,16.10
2015,06,16,21,31,16.10
2015,06,16,21,32,16.10
2015,06,16,21,33,16.10
2015,06,16,21,34,16.20
2015,06,16,21,35,16.20
2015,06,16,21,36,16.20
2015,06,16,21,37,16.20
2015,06,16,21,38,16.20
2015,06,16,21,39,16.20
2015,06,16,21,40,16.20
2015,06,16,21,41,16.10
2015,06,16,21,42,16.10
2015,06,16,21,43,16.10
2015,06,16,21,44,16.10
2015,06,16,21,45,16.10
2015,06,16,21,46,16.10
2015,06,16,21,47,16.10
2015,06,16,21,48,16.10
2015,06,16,21,49,16.10
2015,06,16,21,50,16.10
2015,06,16,21,51,16.00
2015,06,16,21,52,16.00
2015,06,16,21,53,16.00
2015,06,16,21,54,16.00
2015,06,16,21,55,16.00
2015,06,16,21,56,16.10
2015,06,16,21,57,16.10
2015,06,16,21,58,16.10
2015,06,16,21,59,16.10
2015,06,16,22,00,16.10
2015,06,16,22,01,16.10
2015,06,16,22,02,16.10
2015,06,16,22,03,16.10
2015,06,16,22,04,16.10
2015,06,16,22,05,16.00
2015,06,16,22,06,16.00
2015,06,16,22,07,16.00
2015,06,16,22,08,15.90
2015,06,16,22,09,15.90
2015,06,16,22,10,15.90
2015,06,16,22,11,16.00
2015,06,16,22,12,16.00
2015,06,16,22,13,16.00
2015,06,16,22,14,16.00
2015,06,16,22,15,16.00
2015,06,16,22,16,16.00
2015,06,16,22,17,16.00
2015,06,16,22,18,16.00
2015,06,16,22,19,15.90
2015,06,16,22,20,15.90
2015,06,16,22,21,16.00
2015,06,16,22,22,16.00
2015,06,16,22,23,16.00
2015,06,16,22,24,16.10
2015,06,16,22,25,16.10
2015,06,16,22,26,16.10
2015,06,16,22,27,16.20
2015,06,16,22,28,16.20
2015,06,16,22,29,16.20
2015,06,16,22,30,16.20
2015,06,16,22,31,16.20
2015,06,16,22,32,16.20
2015,06,16,22,33,16.20
2015,06,16,22,34,16.30
2015,06,16,22,35,16.30
2015,06,16,22,36,16.30
2015,06,16,22,37,16.30
2015,06,16,22,38,16.30
2015,06,16,22,39,16.30
2015,06,16,22,40,16.30
2015,06,16,22,41,16.30
2015,06,16,22,42,16.30
2015,06,16,22,43,16.30
2015,06,16,22,44,16.30
2015,06,16,22,45,16.30
2015,06,16,22,46,16.30
2015,06,16,22,47,16.30
2015,06,16,22,48,16.30
2015,06,16,22,49,16.30
2015,06,16,22,50,16.30
2015,06,16,22,51,16.30
2015,06,16,22,52,16.30
2015,06,16,22,53,16.40
2015,06,16,22,54,16.40
2015,06,16,22,55,16.40
2015,06,16,22,56,16.40
2015,06,16,22,57,16.30
2015,06,16,22,58,16.30
2015,06,16,22,59,16.30
2015,06,16,23,00,16.30
2015,06,16,23,01,16.30
2015,06,16,23,02,16.30
2015,06,16,23,03,16.30
2015,06,16,23,04,16.20
2015,06,16,23,05,16.20
2015,06,16,23,06,16.20
2015,06,16,23,07,16.20
2015,06,16,23,08,16.20
2015,06,16,23,09,16.20
2015,06,16,23,10,16.10
2015,06,16,23,11,16.10
2015,06,16,23,12,16.10
2015,06,16,23,13,16.10
2015,06,16,23,14,16.10
2015,06,16,23,15,16.10
2015,06,16,23,16,16.00
2015,06,16,23,17,16.00
2015,06,16,23,18,16.10
2015,06,16,23,19,16.10
2015,06,16,23,20,16.10
2015,06,16,23,21,16.10
2015,06,16,23,22,16.10
2015,06,16,23,23,16.10
2015,06,16,23,24,16.10
2015,06,16,23,25,16.10
2015,06,16,23,26,16.10
2015,06,16,23,27,16.10
2015,06,16,23,28,16.20
2015,06,16,23,29,16.20
2015,06,16,23,30,16.20
2015,06,16,23,31,16.20
2015,06,16,23,32,16.20
2015,06,16,23,33,16.20
2015,06,16,23,34,16.20
2015,06,16,23,35,16.20
2015,06,16,23,36,16.20
2015,06,16,23,37,16.20
2015,06,16,23,38,16.20
2015,06,16,23,39,16.20
2015,06,16,23,40,16.20
2015,06,16,23,41,16.20
2015,06,16,23,42,16.20
2015,06,16,23,43,16.20
2015,06,16,23,44,16.10
2015,06,16,23,45,16.10
2015,06,16,23,46,16.10
2015,06,16,23,47,16.10
2015,06,16,23,48,16.10
2015,06,16,23,49,16.10
2015,06,16,23,50,16.10
2015,06,16,23,51,16.10
2015,06,16,23,52,16.00
2015,06,16,23,53,16.10
2015,06,16,23,54,16.00
2015,06,16,23,55,16.10
2015,06,16,23,56,16.10
2015,06,16,23,57,16.00
2015,06,16,23,58,16.00
2015,06,16,23,59,16.00
